EW4229 Weather Reports


Display with metric or nautical units.
time (UTC)temp
F
wind
direction
speed
MPH
gust
MPH
rain 1hr
in
rain 24hr
in
rain mn
in
humidity
%
barometer
mb
20260902000051 80 70 3.0 15.0 0.00 0.00 0.00 74 1013.2
20260901234604 85 18 3.0 8.0 0.00 0.00 0.00 75 1012.8
20260901233036 0 0.0 0.0 0.00 0.00 0.00 1012.4
20260901231546 89 307 2.0 6.0 0.00 0.00 0.00 64 1012.3
20260901230049 90 315 3.0 6.0 0.00 0.00 0.00 63 1012.4
20260901224538 90 290 3.0 8.0 0.00 0.00 0.00 62 1012.3
20260901223052 91 316 3.0 6.0 0.00 0.00 0.00 63 1012.1
20260901221536 91 317 2.0 5.0 0.00 0.00 0.00 63 1012.0
20260901220035 92 316 3.0 8.0 0.00 0.00 0.00 60 1012.1
20260901214531 92 321 4.0 6.0 0.00 0.00 0.00 61 1011.8
20260901213028 92 319 0.0 4.0 0.00 0.00 0.00 63 1012.1
20260901211536 92 342 2.0 6.0 0.00 0.00 0.00 62 1012.2
20260901210027 92 325 2.0 6.0 0.00 0.00 0.00 62 1012.3
20260901204538 92 128 1.0 6.0 0.00 0.00 0.00 63 1012.4
20260901203026 92 314 2.0 7.0 0.00 0.00 0.00 62 1012.5
20260901201520 92 316 2.0 6.0 0.00 0.00 0.00 64 1012.7
20260901200033 0 0.0 0.0 0.00 0.00 0.00 1012.8
20260901194512 0 27 0.0 0.0 0.00 0.00 0.00 1013.0
20260901193009 0 0.0 0.0 0.00 0.00 0.00 1013.3
20260901191509 90 295 3.0 8.0 0.00 0.00 0.00 65 1013.3
20260901190005 90 342 1.0 11.0 0.00 0.00 0.00 66 1013.5
20260901184601 90 314 6.0 12.0 0.00 0.00 0.00 65 1013.7
20260901183101 90 352 1.0 11.0 0.00 0.00 0.00 67 1013.9
20260901181558 90 289 4.0 9.0 0.00 0.00 0.00 76 1013.9
20260901180055 88 238 3.0 11.0 0.00 0.00 0.00 75 1013.9
20260901174552 87 245 5.0 10.0 0.00 0.00 0.00 77 1014.0
20260901173105 87 236 2.0 7.0 0.00 0.00 0.00 78 1014.1
20260901171548 87 323 0.0 7.0 0.00 0.00 0.00 72 1014.1
20260901170043 0 0.0 0.0 0.00 0.00 0.00 1014.2
20260901164541 85 312 3.0 0.0 0.00 0.00 0.00 1014.5
20260901163035 0 0.0 0.0 0.00 0.00 0.00 1014.6
20260901161533 84 316 1.0 5.0 0.00 0.00 0.00 77 1014.8
20260901160031 0 0.0 0.0 0.00 0.00 0.00 1014.9
20260901154526 0 0.0 0.0 0.00 0.00 0.00 1015.0
20260901153034 0 0.0 0.0 0.00 0.00 0.00 1015.1
20260901151519 79 281 0.0 2.0 0.00 0.00 0.00 90 1015.3
20260901150017 78 243 0.0 1.0 0.00 0.00 0.00 89 1015.4
20260901144526 79 267 0.0 3.0 0.00 0.00 0.00 88 1015.5
20260901143015 80 242 1.0 4.0 0.00 0.00 0.00 87 1015.3
20260901141513 78 321 0.0 3.0 0.00 0.00 0.00 85 1015.6
20260901140013 0 0.0 0.0 0.00 0.00 0.00 1015.4
20260901134509 0 318 1.0 0.0 0.00 0.00 0.00 1015.5
20260901133006 0 0.0 0.0 0.00 0.00 0.00 1015.5
20260901131507 76 302 0.0 4.0 0.00 0.00 0.00 95 1015.7
20260901130056 75 316 0.0 4.0 0.00 0.00 0.00 98 1015.8
20260901124556 73 313 1.0 4.0 0.00 0.00 0.00 99 1016.1
20260901123048 0 0.0 0.0 0.00 0.00 0.00 1016.0
20260901121557 71 245 0.0 1.0 0.00 0.00 0.00 99 1016.1
20260901120048 71 304 0.0 1.0 0.00 0.00 0.00 99 1016.1
20260901114557 71 242 0.0 1.0 0.00 0.00 0.00 99 1016.0
20260901113046 71 304 0.0 1.0 0.00 0.00 0.00 99 1016.1
20260901111549 70 202 0.0 0.0 0.00 0.00 0.00 99 1015.8
20260901110046 70 203 0.0 0.0 0.00 0.00 0.00 99 1016.0
20260901104541 70 202 0.0 0.0 0.00 0.00 0.00 99 1016.0
20260901103039 0 0.0 0.0 0.00 0.00 0.00 1016.1
20260901101535 0 0.0 0.0 0.00 0.00 0.00 1015.8
20260901100032 0 0.0 0.0 0.00 0.00 0.00 1015.7
20260901094529 0 0.0 0.0 0.00 0.00 0.00 1015.6
20260901093024 0 0.0 0.0 0.00 0.00 0.00 1015.7
20260901091529 70 203 0.0 0.0 0.00 0.00 0.00 99 1015.7
20260901090018 0 0.0 0.0 0.00 0.00 0.00 1015.8
20260901084514 0 120 0.0 0.0 0.00 0.00 0.00 1016.0
20260901083012 0 0.0 0.0 0.00 0.00 0.00 1016.1
20260901081509 69 199 0.0 0.0 0.00 0.00 0.00 99 1016.2
20260901080006 69 199 0.0 0.0 0.00 0.00 0.00 99 1016.2
20260901074506 69 199 0.0 0.0 0.00 0.00 0.00 99 1016.4
20260901073013 69 199 0.0 0.0 0.00 0.00 0.00 99 1016.4
20260901071505 69 199 0.0 0.0 0.00 0.00 0.00 99 1016.3
20260901070007 69 199 0.0 0.0 0.00 0.00 0.00 99 1016.1
20260901064508 70 199 0.0 0.0 0.00 0.00 0.00 99 1016.4
20260901063001 69 199 0.0 0.0 0.00 0.00 0.00 99 1016.6
20260901061557 0 0.0 0.0 0.00 0.00 0.00 1016.7
20260901060055 70 199 0.0 0.0 0.00 0.00 0.00 1016.7
20260901054550 0 0.0 0.0 0.00 0.00 0.00 1016.9
20260901053105 0 0.0 0.0 0.00 0.00 0.00 1017.0
20260901051544 70 199 0.0 0.0 0.00 0.00 0.00 99 1017.2
20260901050042 70 199 0.0 0.0 0.00 0.00 0.00 99 1017.1
20260901044546 70 199 0.0 0.0 0.00 0.00 0.00 99 1017.2
20260901043051 70 199 0.0 0.0 0.00 0.00 0.00 99 1017.3
20260901041535 70 199 0.0 0.0 0.00 0.00 0.00 99 1017.3
20260901040044 71 199 0.0 0.0 0.00 0.00 0.00 99 1017.4
20260901034540 0 0.0 0.0 0.00 0.00 0.00 1017.3
20260901033048 0 0.0 0.0 0.00 0.00 0.00 1017.6
20260901031527 0 0.0 0.0 0.00 0.00 0.00 1017.5
20260901030026 71 199 0.0 0.0 0.00 0.00 0.00 1017.6
20260901024526 0 0.0 0.0 0.00 0.00 0.00 1017.7
20260901023016 0 0.0 0.0 0.00 0.00 0.00 1017.8
20260901021518 73 199 0.0 0.0 0.00 0.00 0.00 93 1018.0
20260901020012 73 199 0.0 0.0 0.00 0.00 0.00 92 1017.8
20260901014511 73 199 0.0 0.0 0.00 0.00 0.00 93 1017.6
20260901013011 73 199 0.0 0.0 0.00 0.00 0.00 91 1017.4
20260901011509 74 158 0.0 0.0 0.00 0.00 0.00 91 1017.4
20260901010010 74 158 0.0 0.0 0.00 0.00 0.00 90 1017.2
20260901004509 74 158 0.0 0.0 0.00 0.00 0.00 88 1017.0
20260901003012 74 158 0.0 0.0 0.00 0.00 0.00 88 1017.1
20260901001515 74 158 0.0 0.0 0.00 0.00 0.00 87 1017.0